Change the Weather History Date:

Friday, July 5, 2013

  Actual Average Record
Temperature  
Mean Temperature 80 °F 80 °F  
Max Temperature 93 °F 92 °F 106 °F (1980)
Min Temperature 66 °F 69 °F 51 °F (1972)
Degree Days  
Heating Degree Days 0 0  
Month to date heating degree days 2 0  
Since 1 June heating degree days 5 6  
Since 1 July heating degree days 2 0  
Cooling Degree Days 15 15  
Month to date cooling degree days 40 75  
Year to date cooling degree days 580 540  
Since 1 June cooling degree days 442 404  
Growing Degree Days 30 (Base 50)    
Moisture  
Dew Point 59 °F    
Average Humidity 56    
Maximum Humidity 81    
Minimum Humidity 30    
Precipitation  
Precipitation 0.00 in 0.12 in 1.76 in (1967)
Month to date precipitation 0.00 0.62  
Year to date precipitation 15.85 17.68  
Snow  
Snow 0.00 in 0.00 in 0.00 in (2007)
Month to date snowfall 0.0 0.0  
Since 1 June snowfall 0.0 0.0  
Since 1 July snowfall 0.0 0.0  
Snow Depth 0.00 in    
Sea Level Pressure  
Sea Level Pressure 29.88 in    
Wind  
Wind Speed 16 mph (SSE)    
Max Wind Speed 33 mph    
Max Gust Speed 39 mph    
Visibility 10 miles    
Events      
T = Trace of Precipitation, MM = Missing Value Source: NWS Daily Summary

Daily Weather History Graph

Daily Weather History Graph

Search for Another Location

Airport or City:

Trip Planner

Search our weather history database for the weather conditions in past years. The results will help you decide how hot, cold, wet, or windy it might be!

Date:

Astronomy

Jul. 05, 2013 Rise Set
Actual Time 6:14 AM CDT 8:54 PM CDT
Civil Twilight 5:43 AM CDT 9:25 PM CDT
Nautical Twilight 5:04 AM CDT 10:03 PM CDT
Astronomical Twilight 4:21 AM CDT 10:47 PM CDT
Moon 4:13 AM CDT (7/5) 6:51 PM CDT (7/5)
Length of Visible Light 15h 42m
Length of Day
14h 40m
Waning Crescent, 6% of the Moon is Illuminated
Jul 5
Waning Crescent
Jul 8
New
Jul 15
First Quarter
Jul 22
Full
Jul 29
Last Quarter

Hourly Weather History & Observations

Time (CDT) Temp. Heat Index Dew Point Humidity Pressure Visibility Wind Dir Wind Speed Gust Speed Precip Events Conditions
12:53 AM 73.9 °F - 61.0 °F 64% 29.92 in 10.0 mi SSE 12.7 mph - N/A   Scattered Clouds
1:53 AM 73.0 °F - 59.0 °F 61% 29.91 in 10.0 mi South 10.4 mph - N/A   Mostly Cloudy
2:53 AM 73.0 °F - 59.0 °F 61% 29.90 in 10.0 mi South 12.7 mph - N/A   Mostly Cloudy
3:53 AM 71.1 °F - 59.0 °F 66% 29.90 in 10.0 mi South 10.4 mph - N/A   Mostly Cloudy
4:53 AM 69.1 °F - 60.1 °F 73% 29.90 in 10.0 mi South 8.1 mph - N/A   Mostly Cloudy
5:53 AM 68.0 °F - 60.1 °F 76% 29.90 in 10.0 mi South 9.2 mph - N/A   Mostly Cloudy
6:53 AM 66.0 °F - 60.1 °F 81% 29.91 in 10.0 mi SE 9.2 mph - N/A   Mostly Cloudy
7:53 AM 70.0 °F - 61.0 °F 73% 29.92 in 10.0 mi SSE 8.1 mph - N/A   Mostly Cloudy
8:53 AM 73.0 °F - 62.1 °F 68% 29.92 in 10.0 mi SSE 9.2 mph - N/A   Scattered Clouds
9:53 AM 77.0 °F - 62.1 °F 60% 29.94 in 10.0 mi ESE 9.2 mph - N/A   Scattered Clouds
10:53 AM 80.1 °F 80.6 °F 57.9 °F 47% 29.92 in 10.0 mi South 18.4 mph 31.1 mph N/A   Scattered Clouds
11:53 AM 86.0 °F 85.0 °F 57.9 °F 38% 29.91 in 10.0 mi South 23.0 mph 28.8 mph N/A   Scattered Clouds
12:53 PM 89.1 °F 87.3 °F 55.9 °F 32% 29.89 in 10.0 mi South 27.6 mph 36.8 mph N/A   Scattered Clouds
1:53 PM 90.0 °F 87.9 °F 55.0 °F 30% 29.88 in 10.0 mi South 32.2 mph 39.1 mph N/A   Scattered Clouds
2:53 PM 91.0 °F 88.9 °F 55.0 °F 29% 29.86 in 10.0 mi South 21.9 mph 34.5 mph N/A   Scattered Clouds
3:53 PM 91.9 °F 90.0 °F 55.0 °F 29% 29.84 in 10.0 mi South 25.3 mph 33.4 mph N/A   Scattered Clouds
4:53 PM 91.9 °F 90.0 °F 55.0 °F 29% 29.83 in 10.0 mi SSE 20.7 mph 32.2 mph N/A   Mostly Cloudy
5:53 PM 91.9 °F 90.6 °F 57.0 °F 31% 29.81 in 10.0 mi SSE 19.6 mph 26.5 mph N/A   Mostly Cloudy
6:53 PM 90.0 °F 88.6 °F 57.0 °F 33% 29.81 in 10.0 mi SSE 20.7 mph 28.8 mph N/A   Mostly Cloudy
7:53 PM 87.1 °F 85.7 °F 55.9 °F 35% 29.81 in 10.0 mi SSE 17.3 mph - N/A   Scattered Clouds
8:53 PM 82.9 °F 82.8 °F 59.0 °F 44% 29.83 in 10.0 mi SSE 13.8 mph - N/A   Scattered Clouds
9:53 PM 80.1 °F 81.1 °F 61.0 °F 52% 29.85 in 10.0 mi SSE 11.5 mph - N/A   Scattered Clouds
10:53 PM 79.0 °F - 61.0 °F 54% 29.85 in 10.0 mi SSE 13.8 mph - N/A   Scattered Clouds
11:53 PM 77.0 °F - 61.0 °F 58% 29.86 in 10.0 mi SSE 11.5 mph - N/A   Scattered Clouds